M I D A S
Marine Information and Data Acquisition System
Tripno 1898 of the Zeeleeuw from 2010-06-10 07:17:39 to 2010-06-10 16:38:57
Back to CruiseResearch ActivitiesStationsMapUnderway DataData graphs

EquipmentUnitsComments
TimeDGPSUTC
LatitudeDGPSDM.mWGS84
LongitudeDGPSDM.mWGS84
SpeedMeteo Stationm/sRelative wind speed
DirectionMeteo StationdegRelative wind direction
TemperatureMeteo Stationdeg CelciusAir temperature
PressureMeteo StationPaAtmospheric pressure
HumidityMeteo Station%Relative humidity
Missing or incorrect values are displayed as -999
Metereological data collected by the RV Zeeleeuw from 2010-06-10 07:52:38 to 2010-06-10 16:42:46
                                                                                    Next 1000 lines
Time Latitude Longitude Speed Direction Temperature Pressure Humidity
2010-06-10 07:52:48 51°13.661 2°55.954 3.1 285 15.9 100460 45
2010-06-10 07:52:53 51°13.662 2°55.95 1.4 260 15.9 100460 46
2010-06-10 07:52:58 51°13.663 2°55.944 0.8 277 15.9 100460 46
2010-06-10 07:53:03 51°13.664 2°55.939 2.9 24 16 100460 46
2010-06-10 07:53:09 51°13.665 2°55.931 2 288 16 100460 46
2010-06-10 07:53:14 51°13.667 2°55.923 4.6 258 16 100460 48
2010-06-10 07:53:20 51°13.668 2°55.914 2.2 286 16 100460 48
2010-06-10 07:53:25 51°13.669 2°55.907 5.3 259 16 100460 45
2010-06-10 07:53:31 51°13.671 2°55.897 6.6 283 16 100460 45
2010-06-10 07:53:36 51°13.672 2°55.888 3.4 21 16 100460 45
2010-06-10 07:53:41 51°13.673 2°55.88 3.2 284 16 100460 45
2010-06-10 07:53:46 51°13.675 2°55.871 2.4 31 16 100460 46
2010-06-10 07:53:51 51°13.677 2°55.862 2.8 287 16 100460 46
2010-06-10 07:53:56 51°13.679 2°55.853 3.6 27 16 100470 45
2010-06-10 07:54:01 51°13.681 2°55.844 4.2 283 16 100470 45
2010-06-10 07:54:06 51°13.683 2°55.835 3.5 259 16 100460 48
2010-06-10 07:54:11 51°13.686 2°55.826 2.2 279 16 100460 48
2010-06-10 07:54:16 51°13.689 2°55.817 1.9 266 16 100460 45
2010-06-10 07:54:21 51°13.692 2°55.808 2.8 75 16 100460 45
2010-06-10 07:54:26 51°13.695 2°55.799 3.3 263 16 100460 45
2010-06-10 07:54:31 51°13.699 2°55.79 4 77 16 100460 45
2010-06-10 07:54:36 51°13.702 2°55.782 5.2 30 16 100460 48
2010-06-10 07:54:41 51°13.706 2°55.773 5.3 81 16 100460 48
2010-06-10 07:54:46 51°13.71 2°55.764 6 261 16 100460 48
2010-06-10 07:54:51 51°13.714 2°55.756 5.5 284 16 100460 48
2010-06-10 07:54:56 51°13.718 2°55.747 5.3 265 16 100460 46
2010-06-10 07:55:01 51°13.723 2°55.739 4.5 279 16 100460 46
2010-06-10 07:55:06 51°13.728 2°55.73 4.7 267 16 100460 46
2010-06-10 07:55:11 51°13.734 2°55.722 3.9 284 16 100460 46
2010-06-10 07:55:16 51°13.74 2°55.714 4.8 26 16 100470 45
2010-06-10 07:55:21 51°13.746 2°55.707 5 80 16 100470 45
2010-06-10 07:55:26 51°13.753 2°55.699 5.2 23 16 100470 48
2010-06-10 07:55:31 51°13.76 2°55.692 4.7 81 16 100470 48
2010-06-10 07:55:36 51°13.766 2°55.685 4.5 23 16 100460 47
2010-06-10 07:55:41 51°13.773 2°55.678 4.9 81 16 100460 47
2010-06-10 07:55:46 51°13.78 2°55.671 6.4 24 15.9 100460 45
2010-06-10 07:55:51 51°13.787 2°55.665 7.7 81 15.9 100460 45
2010-06-10 07:55:56 51°13.794 2°55.658 5.2 27 15.9 100460 45
2010-06-10 07:56:01 51°13.8 2°55.652 5.7 76 15.9 100460 45
2010-06-10 07:56:06 51°13.807 2°55.646 3.3 265 15.9 100460 45
2010-06-10 07:56:12 51°13.814 2°55.64 4.7 76 15.9 100460 45
2010-06-10 07:56:16 51°13.819 2°55.635 5.7 29 15.9 100490 45
2010-06-10 07:56:21 51°13.825 2°55.63 5.5 78 15.9 100490 45
2010-06-10 07:56:26 51°13.83 2°55.626 5 23 15.9 100460 48
2010-06-10 07:56:31 51°13.836 2°55.622 5.8 80 15.9 100460 48
2010-06-10 07:56:36 51°13.842 2°55.618 6.2 25 15.9 100450 46
2010-06-10 07:56:41 51°13.847 2°55.614 5.8 82 15.9 100450 46
2010-06-10 07:56:46 51°13.852 2°55.611 6.6 27 15.9 100470 46
2010-06-10 07:56:51 51°13.858 2°55.608 5.1 77 15.9 100470 46
2010-06-10 07:56:56 51°13.863 2°55.606 5.9 29 15.9 100460 46
2010-06-10 07:57:01 51°13.868 2°55.604 5.7 81 15.9 100460 46
2010-06-10 07:57:06 51°13.873 2°55.602 6.1 22 15.9 100460 44
2010-06-10 07:57:11 51°13.878 2°55.601 4.7 76 15.9 100460 44
2010-06-10 07:57:16 51°13.883 2°55.6 4.2 20 15.9 100460 47
2010-06-10 07:57:21 51°13.888 2°55.599 4.8 81 15.9 100460 47
2010-06-10 07:57:25 51°13.892 2°55.599 5.3 20 15.9 100460 45
2010-06-10 07:57:31 51°13.898 2°55.6 4.3 81 15.9 100460 45
2010-06-10 07:57:36 51°13.902 2°55.6 4.8 35 15.9 100460 47
2010-06-10 07:57:41 51°13.906 2°55.601 2.9 76 15.9 100460 47
2010-06-10 07:57:46 51°13.911 2°55.602 5.3 25 15.9 100460 45
2010-06-10 07:57:51 51°13.914 2°55.604 5.4 74 15.9 100460 45
2010-06-10 07:57:56 51°13.918 2°55.605 3.2 29 15.9 100460 46
2010-06-10 07:58:01 51°13.922 2°55.607 3.8 77 15.9 100460 46
2010-06-10 07:58:05 51°13.925 2°55.609 4.5 24 15.9 100450 46
2010-06-10 07:58:11 51°13.929 2°55.611 3.3 79 15.9 100450 46
2010-06-10 07:58:15 51°13.931 2°55.613 2.5 30 15.9 100460 47
2010-06-10 07:58:20 51°13.934 2°55.615 1.9 83 15.9 100460 47
2010-06-10 07:58:25 51°13.937 2°55.617 5 28 15.9 100450 46
2010-06-10 07:58:29 51°13.939 2°55.619 5.4 81 15.9 100450 46
2010-06-10 07:58:34 51°13.941 2°55.621 5 23 16 100450 47
2010-06-10 07:58:39 51°13.944 2°55.624 6 79 16 100450 47
2010-06-10 07:58:44 51°13.946 2°55.626 4.2 23 16 100450 46
2010-06-10 07:58:49 51°13.948 2°55.628 5.2 76 16 100450 46
2010-06-10 07:58:53 51°13.949 2°55.629 3.4 28 15.9 100450 46
2010-06-10 07:58:58 51°13.95 2°55.631 3 77 15.9 100450 46
2010-06-10 07:59:03 51°13.951 2°55.632 4 25 15.9 100450 45
2010-06-10 07:59:08 51°13.952 2°55.633 4.6 75 15.9 100450 45
2010-06-10 07:59:12 51°13.953 2°55.633 3.9 44 16 100450 48
2010-06-10 07:59:18 51°13.953 2°55.633 2 74 16 100450 48
2010-06-10 07:59:22 51°13.954 2°55.633 2.1 29 16 100450 48
2010-06-10 07:59:28 51°13.954 2°55.632 3.6 80 16 100450 48
2010-06-10 07:59:33 51°13.954 2°55.63 4.7 28 16 100450 48
2010-06-10 07:59:37 51°13.953 2°55.628 4.9 37 16 100450 48
2010-06-10 07:59:43 51°13.953 2°55.625 6.1 30 16 100450 44
2010-06-10 07:59:48 51°13.953 2°55.621 5.1 -999 16 100450 44
2010-06-10 07:59:53 51°13.953 2°55.617 5.9 30 16 100450 45
2010-06-10 07:59:58 51°13.953 2°55.613 6 31 16 100450 45
2010-06-10 08:00:03 51°13.954 2°55.607 7.1 30 15.9 100450 47
2010-06-10 08:00:08 51°13.955 2°55.602 6.3 21 15.9 100450 47
2010-06-10 08:00:13 51°13.956 2°55.596 6.4 19 15.9 100440 46
2010-06-10 08:00:17 51°13.958 2°55.592 5.7 20 15.9 100440 46
2010-06-10 08:00:22 51°13.96 2°55.586 6.8 11 15.9 100440 45
2010-06-10 08:00:28 51°13.964 2°55.578 5.7 4 15.9 100440 45
2010-06-10 08:00:33 51°13.968 2°55.571 5.6 2 15.9 100440 45
2010-06-10 08:00:37 51°13.972 2°55.566 5.9 6 15.9 100440 45
2010-06-10 08:00:43 51°13.978 2°55.558 5.7 355 15.9 100430 45
2010-06-10 08:00:48 51°13.984 2°55.551 5.5 360 15.9 100430 45
2010-06-10 08:00:53 51°13.991 2°55.543 6.2 352 15.9 100440 47
2010-06-10 08:00:58 51°13.998 2°55.536 6 356 15.9 100440 47
2010-06-10 08:01:02 51°14.005 2°55.53 6.5 354 15.9 100440 45
2010-06-10 08:01:08 51°14.015 2°55.52 6.6 350 15.9 100440 45
2010-06-10 08:01:12 51°14.022 2°55.514 7.4 348 15.9 100430 46
2010-06-10 08:01:18 51°14.034 2°55.504 8 354 15.9 100430 46
2010-06-10 08:01:22 51°14.042 2°55.497 8.5 352 15.9 100430 45
2010-06-10 08:01:28 51°14.055 2°55.487 9.8 349 15.9 100430 45
2010-06-10 08:01:32 51°14.064 2°55.48 8.1 354 15.9 100430 46
2010-06-10 08:01:38 51°14.078 2°55.47 6.4 350 15.9 100430 46
2010-06-10 08:01:43 51°14.089 2°55.462 7.7 351 15.9 100420 47
2010-06-10 08:01:48 51°14.101 2°55.453 9.4 353 15.9 100420 47
2010-06-10 08:01:53 51°14.113 2°55.444 7.9 350 15.9 100420 46
2010-06-10 08:01:57 51°14.122 2°55.437 7.5 351 15.9 100420 46
2010-06-10 08:02:03 51°14.137 2°55.426 8.1 352 15.9 100420 47
2010-06-10 08:02:08 51°14.149 2°55.417 6.7 284 15.9 100420 47
2010-06-10 08:02:13 51°14.161 2°55.408 7.9 351 15.9 100420 45
2010-06-10 08:02:18 51°14.173 2°55.398 9.1 352 15.9 100420 45
2010-06-10 08:02:23 51°14.186 2°55.388 7.7 350 15.8 100420 44
2010-06-10 08:02:28 51°14.199 2°55.378 8.8 353 15.8 100420 44
2010-06-10 08:02:33 51°14.211 2°55.368 9 353 15.8 100430 46
2010-06-10 08:02:38 51°14.223 2°55.358 8.4 353 15.8 100430 46
2010-06-10 08:02:42 51°14.234 2°55.349 9.5 352 15.8 100420 47
2010-06-10 08:02:48 51°14.249 2°55.336 9.5 352 15.8 100420 47
2010-06-10 08:02:53 51°14.262 2°55.326 10.2 357 15.8 100420 45
2010-06-10 08:02:58 51°14.274 2°55.315 9.6 354 15.8 100420 45
2010-06-10 08:03:02 51°14.285 2°55.306 10.2 355 15.7 100420 45
2010-06-10 08:03:08 51°14.3 2°55.293 10.7 354 15.7 100420 45
2010-06-10 08:03:13 51°14.313 2°55.281 10.2 356 15.7 100410 47
2010-06-10 08:03:17 51°14.324 2°55.272 10.8 355 15.7 100410 47
2010-06-10 08:03:23 51°14.34 2°55.258 10.9 355 15.7 100400 45
2010-06-10 08:03:28 51°14.354 2°55.246 9.4 354 15.7 100400 45
2010-06-10 08:03:33 51°14.368 2°55.234 9.6 354 15.7 100400 47
2010-06-10 08:03:38 51°14.381 2°55.22 9.2 354 15.7 100400 47
2010-06-10 08:03:43 51°14.394 2°55.205 10.7 355 15.6 100400 46
2010-06-10 08:03:48 51°14.408 2°55.19 10.6 356 15.6 100400 46
2010-06-10 08:03:52 51°14.419 2°55.179 8.8 355 15.6 100400 45
2010-06-10 08:03:58 51°14.435 2°55.16 9 355 15.6 100400 45
2010-06-10 08:04:02 51°14.446 2°55.147 10.5 354 15.6 100410 46
2010-06-10 08:04:08 51°14.463 2°55.128 8.2 354 15.6 100410 46
2010-06-10 08:04:13 51°14.477 2°55.111 11.1 355 15.6 100400 47
2010-06-10 08:04:17 51°14.488 2°55.098 12.2 356 15.6 100400 47
2010-06-10 08:04:23 51°14.505 2°55.078 10.8 354 15.6 100400 47
2010-06-10 08:04:28 51°14.52 2°55.062 10 354 15.6 100400 47
2010-06-10 08:04:33 51°14.535 2°55.046 11.8 354 15.6 100400 46
2010-06-10 08:04:38 51°14.549 2°55.029 11 353 15.6 100400 46
2010-06-10 08:04:43 51°14.564 2°55.012 11 354 15.5 100390 47
2010-06-10 08:04:48 51°14.579 2°54.995 11.6 354 15.5 100390 47
2010-06-10 08:04:53 51°14.594 2°54.979 12.1 354 15.5 100390 45
2010-06-10 08:04:58 51°14.609 2°54.963 11.1 353 15.5 100390 45
2010-06-10 08:05:02 51°14.621 2°54.949 11.5 354 15.5 100380 45
2010-06-10 08:05:08 51°14.639 2°54.93 11.2 354 15.5 100380 45
2010-06-10 08:05:13 51°14.654 2°54.914 11 353 15.5 100390 45
2010-06-10 08:05:17 51°14.666 2°54.9 11.6 352 15.5 100390 45
2010-06-10 08:05:22 51°14.681 2°54.885 11.8 354 15.5 100400 45
2010-06-10 08:05:28 51°14.698 2°54.866 12.7 353 15.5 100400 45
2010-06-10 08:05:33 51°14.713 2°54.851 10.1 352 15.5 100390 45
2010-06-10 08:05:38 51°14.728 2°54.834 11.3 353 15.5 100390 45
2010-06-10 08:05:43 51°14.743 2°54.818 11.1 353 15.5 100400 46
2010-06-10 08:05:48 51°14.758 2°54.801 11.3 354 15.5 100400 46
2010-06-10 08:05:52 51°14.769 2°54.788 12.7 354 15.5 100390 46
2010-06-10 08:05:58 51°14.787 2°54.769 11.2 351 15.5 100390 46
2010-06-10 08:06:02 51°14.799 2°54.757 10 353 15.4 100400 47
2010-06-10 08:06:08 51°14.818 2°54.738 11.1 354 15.4 100400 47
2010-06-10 08:06:12 51°14.83 2°54.725 10.5 351 15.4 100390 45
2010-06-10 08:06:18 51°14.847 2°54.705 11.8 355 15.4 100390 45
2010-06-10 08:06:23 51°14.861 2°54.687 11.4 354 15.4 100400 45
2010-06-10 08:06:28 51°14.875 2°54.669 12.6 356 15.4 100400 45
2010-06-10 08:06:33 51°14.889 2°54.652 10.9 353 15.4 100400 46
2010-06-10 08:06:37 51°14.9 2°54.638 12.2 354 15.4 100400 46
2010-06-10 08:06:43 51°14.917 2°54.616 12 356 15.4 100400 45
2010-06-10 08:06:48 51°14.932 2°54.599 11 354 15.4 100400 45
2010-06-10 08:06:53 51°14.946 2°54.581 11.5 355 15.4 100390 45
2010-06-10 08:06:58 51°14.959 2°54.563 11.7 355 15.4 100390 45
2010-06-10 08:07:02 51°14.97 2°54.549 11.9 355 15.4 100390 46
2010-06-10 08:07:08 51°14.987 2°54.527 12.3 356 15.4 100390 46
2010-06-10 08:07:13 51°15.001 2°54.509 12 354 15.4 100400 46
2010-06-10 08:07:18 51°15.015 2°54.492 10.3 354 15.4 100400 46
2010-06-10 08:07:22 51°15.026 2°54.477 11.1 354 15.4 100390 46
2010-06-10 08:07:28 51°15.042 2°54.456 11.1 352 15.4 100390 46
2010-06-10 08:07:33 51°15.056 2°54.438 11.1 354 15.4 100400 46
2010-06-10 08:07:37 51°15.067 2°54.424 11.3 354 15.4 100400 46
2010-06-10 08:07:42 51°15.081 2°54.406 11.4 356 15.3 100390 45
2010-06-10 08:07:48 51°15.098 2°54.385 10.2 355 15.3 100390 45
2010-06-10 08:07:53 51°15.112 2°54.367 11 355 15.4 100400 46
2010-06-10 08:07:58 51°15.126 2°54.348 11.3 356 15.4 100400 46
2010-06-10 08:08:03 51°15.139 2°54.33 11.4 354 15.4 100390 46
2010-06-10 08:08:08 51°15.153 2°54.312 11.6 356 15.4 100390 46
2010-06-10 08:08:12 51°15.164 2°54.297 11.1 356 15.4 100390 45
2010-06-10 08:08:18 51°15.181 2°54.275 10.3 354 15.4 100390 45
2010-06-10 08:08:22 51°15.192 2°54.26 11.4 356 15.4 100400 46
2010-06-10 08:08:28 51°15.208 2°54.238 11 356 15.4 100400 46
2010-06-10 08:08:32 51°15.219 2°54.223 10.5 356 15.3 100390 46
2010-06-10 08:08:37 51°15.233 2°54.205 12 355 15.3 100390 46
2010-06-10 08:08:43 51°15.25 2°54.184 10.2 355 15.4 100390 45
2010-06-10 08:08:48 51°15.264 2°54.166 11.4 356 15.4 100390 45
2010-06-10 08:08:53 51°15.278 2°54.148 9.7 356 15.3 100400 46
2010-06-10 08:08:58 51°15.292 2°54.13 10.9 353 15.3 100400 46
2010-06-10 08:09:03 51°15.305 2°54.112 11.8 356 15.3 100400 45
2010-06-10 08:09:08 51°15.319 2°54.094 11.3 355 15.3 100400 45
2010-06-10 08:09:13 51°15.333 2°54.076 11.3 354 15.3 100400 46
2010-06-10 08:09:18 51°15.347 2°54.058 10.8 355 15.3 100400 46
2010-06-10 08:09:22 51°15.358 2°54.044 11 354 15.3 100400 46
2010-06-10 08:09:28 51°15.374 2°54.022 12.6 356 15.3 100400 46
2010-06-10 08:09:33 51°15.388 2°54.004 12.2 356 15.3 100400 45
2010-06-10 08:09:37 51°15.399 2°53.99 10.7 354 15.3 100400 45
2010-06-10 08:09:42 51°15.413 2°53.972 10.2 354 15.3 100400 45
2010-06-10 08:09:48 51°15.429 2°53.95 11.3 356 15.3 100400 45
2010-06-10 08:09:53 51°15.443 2°53.932 10.2 353 15.3 100400 47
2010-06-10 08:09:58 51°15.457 2°53.913 14.9 355 15.3 100400 47
2010-06-10 08:10:03 51°15.471 2°53.896 12.2 356 15.3 100400 46
2010-06-10 08:10:08 51°15.484 2°53.877 12.3 356 15.3 100400 46
2010-06-10 08:10:13 51°15.498 2°53.859 10.6 354 15.3 100400 46
2010-06-10 08:10:18 51°15.512 2°53.841 12 355 15.3 100400 46
2010-06-10 08:10:22 51°15.523 2°53.826 10.4 353 15.3 100390 44
2010-06-10 08:10:28 51°15.539 2°53.805 11.2 354 15.3 100390 44
2010-06-10 08:10:32 51°15.55 2°53.79 11.6 354 15.3 100400 46
2010-06-10 08:10:38 51°15.567 2°53.769 11.2 354 15.3 100400 46
2010-06-10 08:10:42 51°15.578 2°53.755 10 352 15.3 100400 46
2010-06-10 08:10:48 51°15.595 2°53.733 14.3 353 15.3 100400 46
2010-06-10 08:10:53 51°15.609 2°53.717 10.8 352 15.3 100400 46
2010-06-10 08:10:57 51°15.621 2°53.703 12.3 277 15.3 100400 46
2010-06-10 08:11:03 51°15.639 2°53.685 12.3 353 15.3 100400 46
2010-06-10 08:11:08 51°15.654 2°53.671 14.4 350 15.3 100400 46
2010-06-10 08:11:13 51°15.669 2°53.658 11.1 351 15.3 100400 46
2010-06-10 08:11:18 51°15.685 2°53.644 10.3 351 15.3 100400 46
2010-06-10 08:11:22 51°15.698 2°53.634 11.2 349 15.2 100410 45
2010-06-10 08:11:28 51°15.717 2°53.619 13.6 350 15.2 100410 45
2010-06-10 08:11:33 51°15.733 2°53.607 11.8 352 15.2 100400 45
2010-06-10 08:11:38 51°15.749 2°53.595 12.6 350 15.2 100400 45
2010-06-10 08:11:42 51°15.762 2°53.586 10.5 350 15.3 100400 45
2010-06-10 08:11:48 51°15.781 2°53.573 12.3 349 15.3 100400 45
2010-06-10 08:11:53 51°15.797 2°53.562 13.6 349 15.2 100410 45
2010-06-10 08:11:57 51°15.81 2°53.553 13.3 278 15.2 100410 45
2010-06-10 08:12:02 51°15.827 2°53.542 12.5 350 15.2 100400 46
2010-06-10 08:12:08 51°15.846 2°53.529 12.3 351 15.2 100400 46
2010-06-10 08:12:13 51°15.863 2°53.519 13.1 351 15.2 100400 46
2010-06-10 08:12:18 51°15.879 2°53.508 11.9 349 15.2 100400 46
2010-06-10 08:12:23 51°15.895 2°53.497 13.1 349 15.2 100400 45
2010-06-10 08:12:28 51°15.911 2°53.486 11.3 349 15.2 100400 45
2010-06-10 08:12:32 51°15.924 2°53.478 11.4 348 15.2 100400 45
2010-06-10 08:12:38 51°15.944 2°53.464 14.7 279 15.2 100400 45
2010-06-10 08:12:42 51°15.957 2°53.456 11 350 15.2 100400 46
2010-06-10 08:12:48 51°15.976 2°53.443 11 280 15.2 100400 46
2010-06-10 08:12:52 51°15.989 2°53.434 12.9 348 15.2 100400 45
2010-06-10 08:12:58 51°16.008 2°53.421 12.5 277 15.2 100400 45
2010-06-10 08:13:03 51°16.024 2°53.41 11.9 348 15.2 100400 45
2010-06-10 08:13:08 51°16.04 2°53.399 12.1 278 15.2 100400 45
2010-06-10 08:13:13 51°16.056 2°53.388 11.4 352 15.2 100410 46
2010-06-10 08:13:17 51°16.069 2°53.379 11.6 351 15.2 100410 46
2010-06-10 08:13:23 51°16.088 2°53.365 11.2 350 15.2 100410 46
2010-06-10 08:13:28 51°16.105 2°53.354 11.4 351 15.2 100410 46
2010-06-10 08:13:33 51°16.121 2°53.343 11.4 348 15.2 100400 46
2010-06-10 08:13:38 51°16.137 2°53.332 15 280 15.2 100400 46
2010-06-10 08:13:42 51°16.15 2°53.323 14 350 15.2 100410 46
2010-06-10 08:13:48 51°16.169 2°53.31 13.2 351 15.2 100410 46
2010-06-10 08:13:53 51°16.185 2°53.299 11.5 349 15.2 100400 46
2010-06-10 08:13:57 51°16.198 2°53.29 11.2 348 15.2 100400 46
2010-06-10 08:14:02 51°16.214 2°53.28 11.8 348 15.2 100410 45
2010-06-10 08:14:08 51°16.234 2°53.267 12.4 279 15.2 100410 45
2010-06-10 08:14:13 51°16.25 2°53.255 12.9 350 15.2 100400 46
2010-06-10 08:14:18 51°16.266 2°53.244 12.2 279 15.2 100400 46
2010-06-10 08:14:23 51°16.282 2°53.233 11.8 350 15.2 100400 45
2010-06-10 08:14:28 51°16.298 2°53.222 12.6 350 15.2 100400 45
2010-06-10 08:14:33 51°16.314 2°53.211 13.1 349 15.2 100400 46
2010-06-10 08:14:38 51°16.33 2°53.2 13.2 349 15.2 100400 46
2010-06-10 08:14:42 51°16.343 2°53.191 12.6 350 15.2 100400 45
2010-06-10 08:14:48 51°16.362 2°53.178 13.7 349 15.2 100400 45
2010-06-10 08:14:52 51°16.375 2°53.169 11 349 15.2 100410 46
2010-06-10 08:14:58 51°16.395 2°53.156 12 348 15.2 100410 46
2010-06-10 08:15:02 51°16.407 2°53.147 12.7 349 15.1 100400 45
2010-06-10 08:15:08 51°16.427 2°53.134 13.3 349 15.1 100400 45
2010-06-10 08:15:12 51°16.44 2°53.125 12 350 15.1 100400 45
2010-06-10 08:15:17 51°16.456 2°53.114 12.5 279 15.1 100400 45
2010-06-10 08:15:23 51°16.475 2°53.1 12.1 350 15.2 100400 45
2010-06-10 08:15:28 51°16.491 2°53.089 12.4 349 15.2 100400 45
2010-06-10 08:15:33 51°16.507 2°53.078 12.4 348 15.1 100400 46
2010-06-10 08:15:38 51°16.523 2°53.067 11.5 278 15.1 100400 46
2010-06-10 08:15:42 51°16.536 2°53.058 13.6 350 15.1 100410 45
2010-06-10 08:15:48 51°16.555 2°53.045 12.9 279 15.1 100410 45
2010-06-10 08:15:53 51°16.571 2°53.034 13.2 350 15.1 100400 45
2010-06-10 08:15:58 51°16.587 2°53.023 12.3 279 15.1 100400 45
2010-06-10 08:16:02 51°16.6 2°53.014 12.1 349 15.1 100410 46
2010-06-10 08:16:08 51°16.619 2°53.001 12.2 280 15.1 100410 46
2010-06-10 08:16:13 51°16.635 2°52.99 11.7 347 15.1 100400 46
2010-06-10 08:16:17 51°16.648 2°52.982 12 280 15.1 100400 46
2010-06-10 08:16:22 51°16.664 2°52.97 11.9 350 15.1 100400 46
2010-06-10 08:16:28 51°16.683 2°52.957 11.7 349 15.1 100400 46
2010-06-10 08:16:33 51°16.699 2°52.946 13.6 348 15.1 100400 46
2010-06-10 08:16:38 51°16.715 2°52.934 11.6 279 15.1 100400 46
2010-06-10 08:16:43 51°16.731 2°52.923 13.1 349 15.1 100400 46
2010-06-10 08:16:48 51°16.747 2°52.912 12 350 15.1 100400 46
2010-06-10 08:16:52 51°16.76 2°52.903 12.7 348 15.1 100400 45
2010-06-10 08:16:58 51°16.779 2°52.89 12.4 351 15.1 100400 45
2010-06-10 08:17:02 51°16.791 2°52.881 11.9 350 15.1 100410 45
2010-06-10 08:17:08 51°16.81 2°52.868 13 349 15.1 100410 45
2010-06-10 08:17:12 51°16.823 2°52.859 13.1 350 15.1 100400 45
2010-06-10 08:17:18 51°16.842 2°52.846 10.6 348 15.1 100400 45
2010-06-10 08:17:22 51°16.854 2°52.837 11.2 348 15.1 100410 45
2010-06-10 08:17:28 51°16.873 2°52.824 11 348 15.1 100410 45
2010-06-10 08:17:33 51°16.889 2°52.813 10.7 348 15.1 100410 45
2010-06-10 08:17:37 51°16.902 2°52.804 13.6 350 15.1 100410 45
2010-06-10 08:17:43 51°16.921 2°52.791 14.3 350 15.1 100410 46
2010-06-10 08:17:48 51°16.937 2°52.781 14.8 349 15.1 100410 46
2010-06-10 08:17:53 51°16.953 2°52.769 13 350 15.1 100420 45
2010-06-10 08:17:58 51°16.968 2°52.758 13.3 278 15.1 100420 45
2010-06-10 08:18:02 51°16.981 2°52.75 11.5 351 15.1 100410 45
2010-06-10 08:18:08 51°17 2°52.736 11.5 349 15.1 100410 45
2010-06-10 08:18:13 51°17.016 2°52.725 12.9 349 15.1 100410 45
2010-06-10 08:18:17 51°17.029 2°52.716 12.1 277 15.1 100410 45
2010-06-10 08:18:22 51°17.045 2°52.705 10 349 15.1 100410 44
2010-06-10 08:18:28 51°17.064 2°52.691 11.5 350 15.1 100410 44
2010-06-10 08:18:33 51°17.08 2°52.68 10.6 347 15.1 100410 45
2010-06-10 08:18:37 51°17.093 2°52.672 11.4 347 15.1 100410 45
2010-06-10 08:18:43 51°17.112 2°52.66 13.6 348 15.1 100410 46
2010-06-10 08:18:48 51°17.129 2°52.655 12.4 279 15.1 100410 46
2010-06-10 08:18:53 51°17.145 2°52.647 13.5 347 15.1 100420 45
2010-06-10 08:18:58 51°17.162 2°52.643 12.4 283 15.1 100420 45
2010-06-10 08:19:02 51°17.176 2°52.639 13.2 347 15.1 100420 46
2010-06-10 08:19:08 51°17.196 2°52.635 12 347 15.1 100420 46
2010-06-10 08:19:12 51°17.21 2°52.632 11.6 345 15.1 100410 46
2010-06-10 08:19:18 51°17.231 2°52.63 12.5 279 15.1 100410 46
2010-06-10 08:19:22 51°17.244 2°52.628 13.4 343 15.1 100420 46
2010-06-10 08:19:28 51°17.265 2°52.627 14 280 15.1 100420 46
2010-06-10 08:19:32 51°17.279 2°52.629 13.5 341 15 100420 45
2010-06-10 08:19:38 51°17.298 2°52.636 12.9 283 15 100420 45
2010-06-10 08:19:42 51°17.311 2°52.643 11.7 336 15.1 100420 46
2010-06-10 08:19:48 51°17.329 2°52.657 13.4 282 15.1 100420 46
2010-06-10 08:19:53 51°17.344 2°52.67 14.1 333 15.1 100430 45
2010-06-10 08:19:57 51°17.356 2°52.68 12.2 283 15.1 100430 45
2010-06-10 08:20:03 51°17.374 2°52.698 15 333 15.1 100420 45
2010-06-10 08:20:08 51°17.388 2°52.713 14.3 278 15.1 100420 45
2010-06-10 08:20:13 51°17.402 2°52.728 13.5 333 15.1 100430 46
2010-06-10 08:20:18 51°17.416 2°52.745 14.5 280 15.1 100430 46
2010-06-10 08:20:22 51°17.427 2°52.758 14.9 332 15.1 100430 46
2010-06-10 08:20:28 51°17.444 2°52.779 13 283 15.1 100430 46
2010-06-10 08:20:33 51°17.457 2°52.796 15 331 15.1 100430 46
2010-06-10 08:20:37 51°17.468 2°52.81 12.7 281 15.1 100430 46
2010-06-10 08:20:42 51°17.482 2°52.828 13.9 332 15.1 100430 45
2010-06-10 08:20:48 51°17.498 2°52.848 13.1 286 15.1 100430 45
2010-06-10 08:20:53 51°17.512 2°52.867 12.5 332 15.1 100440 45
2010-06-10 08:20:58 51°17.526 2°52.884 12.7 287 15.1 100440 45
2010-06-10 08:21:03 51°17.539 2°52.902 12.5 331 15.1 100430 45
2010-06-10 08:21:08 51°17.553 2°52.92 13.4 279 15.1 100430 45
2010-06-10 08:21:12 51°17.564 2°52.934 12.8 332 15.1 100440 46
2010-06-10 08:21:18 51°17.58 2°52.956 12.4 282 15.1 100440 46
2010-06-10 08:21:22 51°17.59 2°52.971 12.1 329 15.1 100440 46
2010-06-10 08:21:28 51°17.604 2°52.997 13.9 278 15.1 100440 46
2010-06-10 08:21:32 51°17.613 2°53.013 12.2 328 15.1 100450 46
2010-06-10 08:21:38 51°17.625 2°53.041 11.9 283 15.1 100450 46
2010-06-10 08:21:42 51°17.634 2°53.059 13.2 325 15.1 100440 45
2010-06-10 08:21:48 51°17.645 2°53.088 14.1 285 15.1 100440 45
2010-06-10 08:21:52 51°17.652 2°53.107 13.1 326 15.1 100430 46
2010-06-10 08:21:57 51°17.661 2°53.132 12.4 287 15.1 100430 46
2010-06-10 08:22:03 51°17.672 2°53.161 13.7 325 15.1 100430 46
2010-06-10 08:22:08 51°17.68 2°53.186 12.5 282 15.1 100430 46
2010-06-10 08:22:13 51°17.688 2°53.211 14 324 15.1 100420 45
2010-06-10 08:22:18 51°17.696 2°53.237 13.3 283 15.1 100420 45
2010-06-10 08:22:23 51°17.704 2°53.262 12.9 325 15.1 100430 45
2010-06-10 08:22:28 51°17.712 2°53.287 13.6 287 15.1 100430 45
2010-06-10 08:22:33 51°17.72 2°53.312 13.4 325 15.1 100430 46
2010-06-10 08:22:37 51°17.726 2°53.332 13.1 277 15.1 100430 46
2010-06-10 08:22:42 51°17.735 2°53.357 12.1 324 15.1 100430 45
2010-06-10 08:22:48 51°17.744 2°53.387 12.8 283 15.1 100430 45
2010-06-10 08:22:53 51°17.753 2°53.413 13.5 323 15.1 100430 45
2010-06-10 08:22:57 51°17.759 2°53.433 12.9 279 15.1 100430 45
2010-06-10 08:23:02 51°17.767 2°53.458 11.1 325 15.1 100430 46
2010-06-10 08:23:07 51°17.775 2°53.483 13.2 282 15.1 100430 46
2010-06-10 08:23:13 51°17.785 2°53.513 13.8 324 15.1 100430 45
2010-06-10 08:23:18 51°17.793 2°53.539 13.8 281 15.1 100430 45
2010-06-10 08:23:22 51°17.8 2°53.559 14 327 15.1 100430 45
2010-06-10 08:23:28 51°17.809 2°53.589 13.9 281 15.1 100430 45
2010-06-10 08:23:33 51°17.818 2°53.614 13.8 325 15.1 100430 46
2010-06-10 08:23:38 51°17.826 2°53.639 13 281 15.1 100430 46
2010-06-10 08:23:42 51°17.832 2°53.659 13.6 324 15.1 100430 44
2010-06-10 08:23:48 51°17.842 2°53.689 13.3 279 15.1 100430 44
2010-06-10 08:23:52 51°17.849 2°53.709 12.8 324 15.1 100440 46
2010-06-10 08:23:58 51°17.859 2°53.739 13 279 15.1 100440 46
2010-06-10 08:24:02 51°17.865 2°53.759 14 324 15.1 100430 45
2010-06-10 08:24:08 51°17.875 2°53.789 14.4 280 15.1 100430 45
2010-06-10 08:24:13 51°17.884 2°53.814 13.8 323 15.1 100440 45
2010-06-10 08:24:18 51°17.892 2°53.838 14.9 283 15.1 100440 45
2010-06-10 08:24:23 51°17.9 2°53.864 12.9 325 15.1 100430 45
2010-06-10 08:24:28 51°17.908 2°53.889 13.8 282 15.1 100430 45
2010-06-10 08:24:33 51°17.916 2°53.913 13.8 324 15.1 100440 46
2010-06-10 08:24:38 51°17.925 2°53.938 14.2 281 15.1 100440 46
2010-06-10 08:24:43 51°17.933 2°53.963 12.7 325 15.1 100420 45
2010-06-10 08:24:48 51°17.941 2°53.988 12.7 279 15.1 100420 45
2010-06-10 08:24:53 51°17.95 2°54.013 14.7 326 15.1 100430 45
2010-06-10 08:24:57 51°17.957 2°54.033 14.9 278 15.1 100430 45
2010-06-10 08:25:02 51°17.965 2°54.057 14.7 325 15.1 100430 45
2010-06-10 08:25:08 51°17.975 2°54.087 15.7 283 15.1 100430 45
2010-06-10 08:25:13 51°17.983 2°54.112 14.9 325 15.1 100440 46
2010-06-10 08:25:17 51°17.99 2°54.131 13.7 284 15.1 100440 46
2010-06-10 08:25:23 51°18 2°54.161 14.3 326 15.1 100440 45
2010-06-10 08:25:28 51°18.009 2°54.185 14.8 279 15.1 100440 45
2010-06-10 08:25:33 51°18.017 2°54.21 13.7 325 15.1 100430 45
2010-06-10 08:25:38 51°18.026 2°54.235 14.3 280 15.1 100430 45
2010-06-10 08:25:42 51°18.033 2°54.254 13.8 325 15.1 100440 45
2010-06-10 08:25:48 51°18.043 2°54.284 13.5 286 15.1 100440 45
2010-06-10 08:25:53 51°18.051 2°54.309 13.4 325 15.1 100430 46
2010-06-10 08:25:58 51°18.06 2°54.334 12.9 282 15.1 100430 46
2010-06-10 08:26:02 51°18.066 2°54.353 14.3 325 15.1 100430 46
2010-06-10 08:26:08 51°18.077 2°54.383 13.6 280 15.1 100430 46
2010-06-10 08:26:12 51°18.083 2°54.403 13.1 325 15.1 100420 45
2010-06-10 08:26:17 51°18.092 2°54.428 15.6 283 15.1 100420 45
2010-06-10 08:26:22 51°18.101 2°54.452 15 325 15.1 100440 44
2010-06-10 08:26:28 51°18.111 2°54.482 13.2 284 15.1 100440 44
2010-06-10 08:26:33 51°18.119 2°54.507 13 327 15.1 100440 46
2010-06-10 08:26:37 51°18.126 2°54.526 14.2 287 15.1 100440 46
2010-06-10 08:26:43 51°18.137 2°54.556 14.5 325 15.1 100440 45
2010-06-10 08:26:48 51°18.145 2°54.581 14.2 282 15.1 100440 45
2010-06-10 08:26:53 51°18.154 2°54.605 15.5 325 15.1 100430 46
2010-06-10 08:26:57 51°18.161 2°54.624 14 283 15.1 100430 46
2010-06-10 08:27:03 51°18.171 2°54.654 13.1 327 15.1 100440 45
2010-06-10 08:27:08 51°18.18 2°54.679 13 282 15.1 100440 45
2010-06-10 08:27:13 51°18.188 2°54.703 12.7 327 15.1 100430 45
2010-06-10 08:27:17 51°18.195 2°54.723 13.1 285 15.1 100430 45
2010-06-10 08:27:22 51°18.204 2°54.748 14 325 15.1 100440 45
2010-06-10 08:27:27 51°18.212 2°54.772 13.4 285 15.1 100440 45
2010-06-10 08:27:33 51°18.222 2°54.802 15.8 326 15.1 100440 46
2010-06-10 08:27:38 51°18.231 2°54.826 15.1 279 15.1 100440 46
2010-06-10 08:27:42 51°18.238 2°54.846 14.6 325 15.1 100430 46
2010-06-10 08:27:48 51°18.248 2°54.876 17.1 284 15.1 100430 46
2010-06-10 08:27:53 51°18.257 2°54.9 13.3 324 15.1 100430 45
2010-06-10 08:27:58 51°18.265 2°54.925 14.7 278 15.1 100430 45
2010-06-10 08:28:02 51°18.272 2°54.944 15 327 15.1 100430 46
2010-06-10 08:28:08 51°18.283 2°54.974 16.2 280 15.1 100430 46
2010-06-10 08:28:12 51°18.29 2°54.993 15.2 326 15.1 100430 45
2010-06-10 08:28:18 51°18.301 2°55.021 14.5 284 15.1 100430 45
2010-06-10 08:28:22 51°18.309 2°55.04 14.3 326 15.1 100430 45
2010-06-10 08:28:28 51°18.321 2°55.068 14.2 280 15.1 100430 45
2010-06-10 08:28:32 51°18.329 2°55.087 13.9 326 15.1 100430 45
2010-06-10 08:28:37 51°18.339 2°55.11 13 281 15.1 100430 45
2010-06-10 08:28:43 51°18.351 2°55.137 13.4 327 15.1 100440 45
2010-06-10 08:28:48 51°18.361 2°55.16 13.5 -999 15.1 100440 45
2010-06-10 08:28:53 51°18.371 2°55.183 15.8 327 15.1 100430 45
2010-06-10 08:28:58 51°18.382 2°55.205 13.6 280 15.1 100430 45
2010-06-10 08:29:03 51°18.392 2°55.228 14.9 327 15.1 100440 45
2010-06-10 08:29:08 51°18.402 2°55.251 13.2 283 15.1 100440 45
2010-06-10 08:29:13 51°18.412 2°55.275 14.3 327 15.1 100440 45
2010-06-10 08:29:17 51°18.42 2°55.293 12.9 282 15.1 100440 45
2010-06-10 08:29:22 51°18.43 2°55.316 13.6 326 15.1 100430 45
2010-06-10 08:29:28 51°18.443 2°55.344 13.9 280 15.1 100430 45
2010-06-10 08:29:33 51°18.453 2°55.367 15.2 326 15.1 100440 46
2010-06-10 08:29:37 51°18.461 2°55.386 15.1 283 15.1 100440 46
2010-06-10 08:29:42 51°18.471 2°55.409 13.8 328 15.1 100440 46
2010-06-10 08:29:48 51°18.483 2°55.436 14.5 -999 15.1 100440 46
2010-06-10 08:29:53 51°18.493 2°55.459 14.5 327 15.1 100440 45
2010-06-10 08:29:58 51°18.503 2°55.482 15.6 283 15.1 100440 45
2010-06-10 08:30:02 51°18.511 2°55.501 15.2 327 15.1 100430 45
2010-06-10 08:30:08 51°18.524 2°55.529 14.7 281 15.1 100430 45
2010-06-10 08:30:13 51°18.534 2°55.552 14.2 325 15.1 100430 46
2010-06-10 08:30:18 51°18.544 2°55.575 14 281 15.1 100430 46
2010-06-10 08:30:22 51°18.552 2°55.594 13.8 327 15.1 100430 45
2010-06-10 08:30:28 51°18.564 2°55.621 14.3 284 15.1 100430 45
2010-06-10 08:30:32 51°18.572 2°55.64 12.8 326 15.1 100440 45
2010-06-10 08:30:38 51°18.585 2°55.667 13.4 281 15.1 100440 45
2010-06-10 08:30:42 51°18.593 2°55.686 12.8 326 15.1 100440 45
2010-06-10 08:30:48 51°18.605 2°55.713 12.6 283 15.1 100440 45
2010-06-10 08:30:53 51°18.615 2°55.737 13.1 327 15.1 100430 45
2010-06-10 08:30:58 51°18.625 2°55.76 14.5 278 15.1 100430 45
2010-06-10 08:31:03 51°18.635 2°55.783 13.9 328 15.1 100440 46
2010-06-10 08:31:08 51°18.645 2°55.807 15.7 284 15.1 100440 46
2010-06-10 08:31:13 51°18.655 2°55.83 14.9 327 15.1 100430 45
2010-06-10 08:31:17 51°18.663 2°55.849 16.3 281 15.1 100430 45
2010-06-10 08:31:23 51°18.675 2°55.877 14.6 326 15.1 100430 45
2010-06-10 08:31:28 51°18.685 2°55.9 14.6 284 15.1 100430 45
2010-06-10 08:31:33 51°18.695 2°55.923 12.1 327 15.1 100440 45
2010-06-10 08:31:37 51°18.704 2°55.942 12.4 279 15.1 100440 45
2010-06-10 08:31:42 51°18.714 2°55.965 14.3 326 15.1 100430 45
2010-06-10 08:31:48 51°18.726 2°55.993 14.9 -999 15.1 100430 45
2010-06-10 08:31:53 51°18.736 2°56.016 14.1 326 15.1 100430 46
2010-06-10 08:31:58 51°18.746 2°56.039 14.9 287 15.1 100430 46
2010-06-10 08:32:02 51°18.754 2°56.058 13.8 327 15.1 100430 45
2010-06-10 08:32:08 51°18.766 2°56.085 13.4 282 15.1 100430 45
2010-06-10 08:32:13 51°18.776 2°56.109 14.9 325 15.1 100430 46
2010-06-10 08:32:18 51°18.786 2°56.132 14.7 281 15.1 100430 46
2010-06-10 08:32:22 51°18.794 2°56.151 15.4 327 15.1 100430 46
2010-06-10 08:32:28 51°18.806 2°56.178 13.3 282 15.1 100430 46
2010-06-10 08:32:32 51°18.814 2°56.197 14.6 326 15.1 100430 46
2010-06-10 08:32:38 51°18.826 2°56.224 13.3 280 15.1 100430 46
2010-06-10 08:32:42 51°18.834 2°56.243 14.3 327 15.1 100430 46
2010-06-10 08:32:48 51°18.846 2°56.27 13.7 286 15.1 100430 46
2010-06-10 08:32:52 51°18.854 2°56.289 13.2 324 15.1 100430 45
2010-06-10 08:32:58 51°18.866 2°56.316 15.8 286 15.1 100430 45
2010-06-10 08:33:02 51°18.874 2°56.335 13.4 327 15.1 100440 45
2010-06-10 08:33:08 51°18.886 2°56.362 15.9 282 15.1 100440 45
2010-06-10 08:33:13 51°18.897 2°56.385 13.6 326 15.1 100430 45
2010-06-10 08:33:17 51°18.905 2°56.404 13 283 15.1 100430 45
2010-06-10 08:33:23 51°18.917 2°56.432 13.3 329 15.1 100440 45
2010-06-10 08:33:28 51°18.927 2°56.455 14.2 278 15.1 100440 45
2010-06-10 08:33:33 51°18.937 2°56.478 13.4 324 15.1 100430 46
2010-06-10 08:33:37 51°18.945 2°56.497 13.8 283 15.1 100430 46
2010-06-10 08:33:43 51°18.957 2°56.525 15.4 324 15.1 100430 45
2010-06-10 08:33:48 51°18.966 2°56.549 15.2 -999 15.1 100430 45
2010-06-10 08:33:53 51°18.976 2°56.572 12.8 327 15.1 100430 46
2010-06-10 08:33:57 51°18.985 2°56.59 15.7 280 15.1 100430 46
2010-06-10 08:34:02 51°18.995 2°56.614 16.5 327 15.1 100440 45
2010-06-10 08:34:08 51°19.007 2°56.642 14 283 15.1 100440 45
2010-06-10 08:34:13 51°19.017 2°56.665 16 327 15.1 100440 45
2010-06-10 08:34:18 51°19.027 2°56.688 14.7 282 15.1 100440 45
2010-06-10 08:34:22 51°19.035 2°56.706 12.9 325 15.1 100440 44
2010-06-10 08:34:28 51°19.047 2°56.734 14.1 281 15.1 100440 44
2010-06-10 08:34:33 51°19.057 2°56.757 13.8 327 15.1 100440 46
2010-06-10 08:34:38 51°19.068 2°56.78 14.1 282 15.1 100440 46
2010-06-10 08:34:42 51°19.076 2°56.799 15.6 325 15.1 100440 45
2010-06-10 08:34:48 51°19.088 2°56.826 12.1 283 15.1 100440 45
2010-06-10 08:34:52 51°19.096 2°56.845 13.8 326 15.1 100430 45
2010-06-10 08:34:58 51°19.108 2°56.873 13.4 283 15.1 100430 45
2010-06-10 08:35:02 51°19.116 2°56.892 12.8 327 15.1 100440 46
2010-06-10 08:35:08 51°19.129 2°56.92 13.4 279 15.1 100440 46
2010-06-10 08:35:12 51°19.137 2°56.938 12.6 328 15.1 100440 46
2010-06-10 08:35:18 51°19.149 2°56.965 11.9 283 15.1 100440 46
2010-06-10 08:35:23 51°19.159 2°56.988 13.5 327 15.1 100440 45
2010-06-10 08:35:28 51°19.169 2°57.012 13.1 282 15.1 100440 45
2010-06-10 08:35:33 51°19.179 2°57.035 13.9 328 15.1 100440 45
2010-06-10 08:35:37 51°19.187 2°57.053 14.4 284 15.1 100440 45
2010-06-10 08:35:43 51°19.2 2°57.081 14 326 15.1 100440 46
2010-06-10 08:35:48 51°19.209 2°57.104 12.6 -999 15.1 100440 46
2010-06-10 08:35:52 51°19.217 2°57.123 14.3 328 15.1 100440 45
2010-06-10 08:35:57 51°19.227 2°57.146 14.2 283 15.1 100440 45
2010-06-10 08:36:03 51°19.24 2°57.174 12 327 15.1 100450 46
2010-06-10 08:36:08 51°19.25 2°57.198 14 287 15.1 100450 46
2010-06-10 08:36:13 51°19.26 2°57.221 13.3 327 15.1 100440 45
2010-06-10 08:36:18 51°19.27 2°57.244 12.9 286 15.1 100440 45
2010-06-10 08:36:22 51°19.278 2°57.262 12.9 328 15.1 100440 46
2010-06-10 08:36:28 51°19.29 2°57.29 14.2 282 15.1 100440 46
2010-06-10 08:36:33 51°19.3 2°57.314 14.2 327 15.1 100440 45
2010-06-10 08:36:38 51°19.31 2°57.336 13.7 282 15.1 100440 45
2010-06-10 08:36:42 51°19.318 2°57.355 14.3 328 15.1 100440 46
2010-06-10 08:36:48 51°19.33 2°57.382 11.8 279 15.1 100440 46
2010-06-10 08:36:53 51°19.341 2°57.405 11.9 329 15.1 100450 45
2010-06-10 08:36:57 51°19.348 2°57.424 12 277 15.1 100450 45
2010-06-10 08:37:02 51°19.359 2°57.447 12.9 327 15.1 100450 45
2010-06-10 08:37:08 51°19.371 2°57.475 12.4 286 15.1 100450 45
2010-06-10 08:37:13 51°19.381 2°57.498 11.9 328 15.1 100450 46
2010-06-10 08:37:18 51°19.391 2°57.522 15.1 280 15.1 100450 46
2010-06-10 08:37:23 51°19.402 2°57.545 13.5 329 15.1 100450 45
2010-06-10 08:37:28 51°19.411 2°57.569 14.4 284 15.1 100450 45
2010-06-10 08:37:32 51°19.42 2°57.587 16 329 15.1 100450 45
2010-06-10 08:37:38 51°19.432 2°57.615 14.4 280 15.1 100450 45
2010-06-10 08:37:42 51°19.441 2°57.633 16.8 327 15.1 100440 46
2010-06-10 08:37:48 51°19.453 2°57.662 13.4 -999 15.1 100440 46
2010-06-10 08:37:52 51°19.461 2°57.68 13.2 328 15.1 100460 46
2010-06-10 08:37:57 51°19.471 2°57.704 12 278 15.1 100460 46
2010-06-10 08:38:03 51°19.484 2°57.732 12.7 327 15.1 100450 46
2010-06-10 08:38:08 51°19.494 2°57.756 13.4 279 15.1 100450 46
2010-06-10 08:38:13 51°19.504 2°57.779 13.6 327 15.1 100450 46
2010-06-10 08:38:18 51°19.514 2°57.803 14.2 281 15.1 100450 46
2010-06-10 08:38:22 51°19.522 2°57.822 13.1 328 15.1 100450 46
2010-06-10 08:38:28 51°19.533 2°57.851 12.1 281 15.1 100450 46
2010-06-10 08:38:33 51°19.543 2°57.876 11.8 328 15.1 100450 45
2010-06-10 08:38:38 51°19.552 2°57.901 13 280 15.1 100450 45
2010-06-10 08:38:42 51°19.559 2°57.92 12.9 326 15.1 100460 45
2010-06-10 08:38:48 51°19.57 2°57.951 13.6 280 15.1 100460 45
2010-06-10 08:38:53 51°19.579 2°57.975 13.1 327 15.1 100460 45
2010-06-10 08:38:57 51°19.586 2°57.995 13.6 283 15.1 100460 45
2010-06-10 08:39:03 51°19.597 2°58.025 13.6 327 15.1 100450 45
2010-06-10 08:39:08 51°19.605 2°58.05 13.3 285 15.1 100450 45
2010-06-10 08:39:13 51°19.614 2°58.076 14.1 327 15.1 100440 45
2010-06-10 08:39:18 51°19.623 2°58.101 14.4 282 15.1 100440 45
2010-06-10 08:39:23 51°19.632 2°58.126 14.3 326 15.1 100450 46
2010-06-10 08:39:28 51°19.641 2°58.151 14.5 285 15.1 100450 46
2010-06-10 08:39:33 51°19.649 2°58.176 14.2 325 15.1 100450 45
2010-06-10 08:39:38 51°19.658 2°58.202 13.6 281 15.1 100450 45
2010-06-10 08:39:43 51°19.667 2°58.227 14.4 325 15.1 100450 44
2010-06-10 08:39:48 51°19.675 2°58.252 13.6 -999 15.1 100450 44
2010-06-10 08:39:52 51°19.682 2°58.272 13.4 326 15.1 100450 46
2010-06-10 08:39:57 51°19.691 2°58.297 14.3 284 15.1 100450 46
2010-06-10 08:40:02 51°19.7 2°58.322 13.3 324 15.1 100450 45
2010-06-10 08:40:08 51°19.711 2°58.353 12.1 283 15.1 100450 45
2010-06-10 08:40:13 51°19.72 2°58.378 12.8 327 15.1 100450 46
2010-06-10 08:40:17 51°19.727 2°58.398 13.4 279 15.1 100450 46
2010-06-10 08:40:22 51°19.736 2°58.423 13.9 327 15.1 100450 45
2010-06-10 08:40:28 51°19.747 2°58.453 12.8 282 15.1 100450 45
2010-06-10 08:40:33 51°19.756 2°58.478 11.9 326 15.1 100460 46
2010-06-10 08:40:38 51°19.764 2°58.504 12.2 283 15.1 100460 46
2010-06-10 08:40:42 51°19.772 2°58.524 12.7 328 15.1 100460 45
2010-06-10 08:40:48 51°19.782 2°58.554 11.8 282 15.1 100460 45
2010-06-10 08:40:53 51°19.791 2°58.58 12.8 327 15.1 100460 45
2010-06-10 08:40:58 51°19.8 2°58.604 11.8 283 15.1 100460 45
2010-06-10 08:41:02 51°19.808 2°58.625 13.6 327 15.1 100460 46
2010-06-10 08:41:08 51°19.818 2°58.654 12.4 278 15.1 100460 46
2010-06-10 08:41:13 51°19.827 2°58.68 12.7 326 15.1 100460 46
2010-06-10 08:41:17 51°19.835 2°58.7 13.8 282 15.1 100460 46
2010-06-10 08:41:22 51°19.844 2°58.725 13.1 327 15.1 100470 45
2010-06-10 08:41:28 51°19.854 2°58.755 14.2 279 15.1 100470 45
2010-06-10 08:41:33 51°19.863 2°58.78 13.9 325 15.1 100460 46
2010-06-10 08:41:38 51°19.872 2°58.805 13 280 15.1 100460 46
2010-06-10 08:41:43 51°19.882 2°58.83 11.7 327 15.1 100460 45
2010-06-10 08:41:48 51°19.89 2°58.855 11.7 -999 15.1 100460 45
2010-06-10 08:41:52 51°19.898 2°58.875 12.4 327 15.1 100460 45
2010-06-10 08:41:58 51°19.909 2°58.905 13.3 286 15.1 100460 45
2010-06-10 08:42:02 51°19.916 2°58.925 13.9 328 15.1 100460 46
2010-06-10 08:42:08 51°19.927 2°58.956 12.8 281 15.1 100460 46
2010-06-10 08:42:12 51°19.934 2°58.976 11.8 327 15.1 100470 46
2010-06-10 08:42:17 51°19.943 2°59.001 13.5 280 15.1 100470 46
2010-06-10 08:42:23 51°19.954 2°59.031 13.9 327 15.1 100460 44
2010-06-10 08:42:28 51°19.963 2°59.057 13.2 279 15.1 100460 44
2010-06-10 08:42:33 51°19.972 2°59.082 13.1 327 15.1 100460 45
2010-06-10 08:42:37 51°19.979 2°59.102 12.9 287 15.1 100460 45
2010-06-10 08:42:42 51°19.988 2°59.128 12.9 325 15.1 100460 46
2010-06-10 08:42:48 51°19.998 2°59.158 12.1 286 15.1 100460 46
2010-06-10 08:42:53 51°20.005 2°59.185 12.8 324 15.1 100460 45
2010-06-10 08:42:58 51°20.012 2°59.212 11.9 279 15.1 100460 45
2010-06-10 08:43:02 51°20.018 2°59.233 12.1 323 15.1 100460 46
2010-06-10 08:43:08 51°20.026 2°59.266 12.4 282 15.1 100460 46
2010-06-10 08:43:13 51°20.032 2°59.293 12.1 323 15.1 100460 45
2010-06-10 08:43:17 51°20.037 2°59.315 12.8 281 15.1 100460 45
2010-06-10 08:43:22 51°20.043 2°59.342 12.4 322 15.1 100460 46
2010-06-10 08:43:28 51°20.051 2°59.375 12.4 283 15.1 100460 46
2010-06-10 08:43:33 51°20.056 2°59.403 12.4 323 15.1 100460 46
2010-06-10 08:43:38 51°20.063 2°59.431 12.9 284 15.1 100460 46
2010-06-10 08:43:43 51°20.068 2°59.458 13.4 322 15.1 100460 46
2010-06-10 08:43:48 51°20.074 2°59.486 12.2 -999 15.1 100460 46
2010-06-10 08:43:53 51°20.08 2°59.514 11.7 322 15.1 100460 46
2010-06-10 08:43:58 51°20.086 2°59.541 12.1 278 15.1 100460 46
2010-06-10 08:44:02 51°20.09 2°59.564 13.2 322 15.1 100450 45
2010-06-10 08:44:08 51°20.097 2°59.597 13.6 283 15.1 100450 45
2010-06-10 08:44:12 51°20.102 2°59.619 12.7 321 15.1 100460 46
2010-06-10 08:44:18 51°20.109 2°59.653 14.4 284 15.1 100460 46
2010-06-10 08:44:22 51°20.114 2°59.675 12.8 322 15.1 100470 45
2010-06-10 08:44:28 51°20.121 2°59.708 12.1 278 15.1 100470 45
2010-06-10 08:44:33 51°20.127 2°59.736 11.2 324 15.1 100450 45
2010-06-10 08:44:37 51°20.132 2°59.758 11.9 284 15.1 100450 45
2010-06-10 08:44:43 51°20.139 2°59.791 13.2 324 15.1 100450 46
2010-06-10 08:44:48 51°20.144 2°59.819 12.8 281 15.1 100450 46
2010-06-10 08:44:53 51°20.151 2°59.846 13.3 323 15.1 100450 45
2010-06-10 08:44:58 51°20.156 2°59.874 13.5 286 15.1 100450 45
2010-06-10 08:45:02 51°20.162 2°59.896 13.5 322 15.1 100470 45
2010-06-10 08:45:08 51°20.169 2°59.929 13.2 278 15.1 100470 45
2010-06-10 08:45:13 51°20.175 2°59.957 12.4 323 15.1 100460 46
2010-06-10 08:45:18 51°20.181 2°59.984 12.8 285 15.1 100460 46
2010-06-10 08:45:22 51°20.186 3°0.006 12.7 322 15.1 100450 45
2010-06-10 08:45:28 51°20.193 3°0.039 13.2 283 15.1 100450 45
2010-06-10 08:45:33 51°20.199 3°0.067 12.8 323 15.1 100460 45
2010-06-10 08:45:37 51°20.204 3°0.089 12.9 282 15.1 100460 45
2010-06-10 08:45:42 51°20.21 3°0.117 12.4 320 15.1 100450 46
2010-06-10 08:45:48 51°20.217 3°0.15 12.2 -999 15.1 100450 46
2010-06-10 08:45:53 51°20.223 3°0.178 14.4 322 15.1 100450 45
2010-06-10 08:45:58 51°20.229 3°0.205 13.9 284 15.1 100450 45
2010-06-10 08:46:03 51°20.235 3°0.233 12.3 322 15.1 100460 45
2010-06-10 08:46:08 51°20.241 3°0.261 13.2 286 15.1 100460 45
2010-06-10 08:46:13 51°20.247 3°0.288 12.5 322 15.1 100450 45
2010-06-10 08:46:18 51°20.253 3°0.316 11.7 281 15.1 100450 45
2010-06-10 08:46:22 51°20.258 3°0.338 12.1 322 15.1 100450 45
2010-06-10 08:46:28 51°20.265 3°0.371 12.2 283 15.1 100450 45
2010-06-10 08:46:32 51°20.27 3°0.393 13.6 323 15.1 100450 45
2010-06-10 08:46:38 51°20.277 3°0.426 12.6 283 15.1 100450 45
2010-06-10 08:46:42 51°20.282 3°0.448 12.2 322 15.1 100460 46
2010-06-10 08:46:48 51°20.29 3°0.481 11.8 282 15.1 100460 46
2010-06-10 08:46:53 51°20.296 3°0.509 14.4 323 15.1 100460 45
2010-06-10 08:46:57 51°20.301 3°0.531 12.8 283 15.1 100460 45
2010-06-10 08:47:03 51°20.308 3°0.565 12.8 321 15.1 100450 45
2010-06-10 08:47:08 51°20.315 3°0.592 13.7 281 15.1 100450 45
2010-06-10 08:47:13 51°20.32 3°0.62 12.2 320 15.1 100450 45
2010-06-10 08:47:18 51°20.327 3°0.648 14.2 283 15.1 100450 45
2010-06-10 08:47:22 51°20.332 3°0.67 13.5 321 15.1 100460 46
2010-06-10 08:47:28 51°20.339 3°0.704 11.9 278 15.1 100460 46
2010-06-10 08:47:33 51°20.345 3°0.732 12.1 323 15.1 100460 45
2010-06-10 08:47:37 51°20.35 3°0.754 12.1 283 15.1 100460 45
2010-06-10 08:47:42 51°20.356 3°0.781 14 321 15.1 100450 44
2010-06-10 08:47:48 51°20.364 3°0.815 14.2 -999 15.1 100450 44
2010-06-10 08:47:53 51°20.37 3°0.842 13.2 321 15.1 100450 45
2010-06-10 08:47:58 51°20.377 3°0.87 11.9 283 15.1 100450 45
2010-06-10 08:48:03 51°20.383 3°0.898 11.5 322 15.1 100450 46
2010-06-10 08:48:08 51°20.389 3°0.925 12.7 277 15.1 100450 46
2010-06-10 08:48:13 51°20.396 3°0.953 11.4 323 15.1 100450 46
2010-06-10 08:48:18 51°20.402 3°0.981 11.9 281 15.1 100450 46
2010-06-10 08:48:22 51°20.407 3°1.003 12.4 323 15.1 100460 45
2010-06-10 08:48:28 51°20.415 3°1.037 12.8 287 15.1 100460 45
2010-06-10 08:48:32 51°20.42 3°1.059 13.4 321 15.1 100450 45
2010-06-10 08:48:38 51°20.427 3°1.092 12.6 283 15.1 100450 45
2010-06-10 08:48:42 51°20.432 3°1.114 11.6 321 15.1 100450 46
2010-06-10 08:48:48 51°20.439 3°1.148 11.3 281 15.1 100450 46
2010-06-10 08:48:52 51°20.444 3°1.17 12.7 323 15.1 100460 45
2010-06-10 08:48:57 51°20.451 3°1.198 12.1 279 15.1 100460 45
2010-06-10 08:49:03 51°20.458 3°1.231 13.7 322 15.1 100450 46
2010-06-10 08:49:08 51°20.465 3°1.259 14.5 279 15.1 100450 46
2010-06-10 08:49:13 51°20.471 3°1.287 13.3 322 15.1 100460 46
2010-06-10 08:49:17 51°20.476 3°1.309 12.9 278 15.1 100460 46
2010-06-10 08:49:23 51°20.484 3°1.342 13 321 15.1 100450 45
2010-06-10 08:49:28 51°20.49 3°1.37 12.9 277 15.1 100450 45
2010-06-10 08:49:33 51°20.497 3°1.397 12.2 322 15.1 100460 45
2010-06-10 08:49:37 51°20.502 3°1.419 11.1 279 15.1 100460 45
2010-06-10 08:49:43 51°20.509 3°1.453 11.2 322 15.1 100450 45
2010-06-10 08:49:48 51°20.516 3°1.481 12.3 -999 15.1 100450 45
2010-06-10 08:49:53 51°20.522 3°1.508 11.8 324 15.1 100460 46
2010-06-10 08:49:58 51°20.528 3°1.536 13.4 279 15.1 100460 46
2010-06-10 08:50:03 51°20.535 3°1.564 12.2 322 15.1 100460 46
2010-06-10 08:50:08 51°20.541 3°1.592 12.2 282 15.1 100460 46
2010-06-10 08:50:13 51°20.547 3°1.62 11.9 322 15.1 100450 46
2010-06-10 08:50:17 51°20.552 3°1.642 12.5 278 15.1 100450 46
2010-06-10 08:50:23 51°20.56 3°1.675 10.8 323 15.1 100460 44
2010-06-10 08:50:27 51°20.565 3°1.698 11.2 277 15.1 100460 44
2010-06-10 08:50:32 51°20.572 3°1.725 13.6 323 15.1 100460 45
2010-06-10 08:50:38 51°20.579 3°1.759 13.3 282 15.1 100460 45
2010-06-10 08:50:43 51°20.586 3°1.786 12.6 321 15.1 100460 45
2010-06-10 08:50:48 51°20.592 3°1.814 11.4 286 15.1 100460 45
2010-06-10 08:50:53 51°20.598 3°1.842 12.9 321 15.1 100470 45
2010-06-10 08:50:58 51°20.605 3°1.87 14 279 15.1 100470 45
2010-06-10 08:51:03 51°20.612 3°1.898 13.2 323 15.1 100460 46
2010-06-10 08:51:08 51°20.618 3°1.925 12 283 15.1 100460 46
2010-06-10 08:51:13 51°20.625 3°1.953 12.5 323 15.1 100460 45
2010-06-10 08:51:17 51°20.63 3°1.976 13 283 15.1 100460 45
2010-06-10 08:51:23 51°20.638 3°2.009 13.9 321 15.1 100450 46
2010-06-10 08:51:28 51°20.644 3°2.037 12.5 278 15.1 100450 46
2010-06-10 08:51:33 51°20.651 3°2.065 11.7 321 15.1 100470 45
2010-06-10 08:51:37 51°20.656 3°2.087 12.3 281 15.1 100470 45
2010-06-10 08:51:42 51°20.663 3°2.115 11.7 322 15.1 100460 45
2010-06-10 08:51:48 51°20.671 3°2.148 13.3 -999 15.1 100460 45
2010-06-10 08:51:53 51°20.677 3°2.176 13.5 323 15.1 100460 46
2010-06-10 08:51:57 51°20.683 3°2.199 12.1 283 15.1 100460 46
2010-06-10 08:52:03 51°20.69 3°2.232 12 323 15.1 100460 46
2010-06-10 08:52:08 51°20.697 3°2.26 12.8 280 15.1 100460 46
2010-06-10 08:52:13 51°20.703 3°2.288 12.5 323 15.1 100460 45
2010-06-10 08:52:18 51°20.71 3°2.316 12.6 283 15.1 100460 45
2010-06-10 08:52:23 51°20.716 3°2.344 11 323 15.1 100450 46
2010-06-10 08:52:28 51°20.723 3°2.372 12.1 277 15.1 100450 46
2010-06-10 08:52:33 51°20.729 3°2.4 12.8 324 15.1 100460 46
2010-06-10 08:52:38 51°20.735 3°2.428 11.7 280 15.1 100460 46
2010-06-10 08:52:42 51°20.741 3°2.45 13.6 321 15.1 100460 45
2010-06-10 08:52:48 51°20.748 3°2.484 11.8 285 15.1 100460 45
2010-06-10 08:52:53 51°20.755 3°2.512 12 322 15.1 100460 45
2010-06-10 08:52:58 51°20.761 3°2.54 12.1 283 15.1 100460 45
2010-06-10 08:53:03 51°20.767 3°2.568 13.8 323 15.1 100450 44
2010-06-10 08:53:08 51°20.774 3°2.596 12.4 278 15.1 100450 44
2010-06-10 08:53:13 51°20.78 3°2.624 12.6 323 15.1 100460 46
2010-06-10 08:53:17 51°20.786 3°2.647 11.8 284 15.1 100460 46
2010-06-10 08:53:23 51°20.793 3°2.68 12.4 321 15.1 100460 46
2010-06-10 08:53:28 51°20.8 3°2.708 11.2 282 15.1 100460 46
2010-06-10 08:53:33 51°20.807 3°2.736 12.4 323 15.2 100460 45
2010-06-10 08:53:37 51°20.812 3°2.758 11.4 279 15.2 100460 45
2010-06-10 08:53:43 51°20.819 3°2.792 12.7 323 15.1 100450 45
2010-06-10 08:53:48 51°20.826 3°2.82 10.9 -999 15.1 100450 45
2010-06-10 08:53:53 51°20.832 3°2.849 13.6 323 15.2 100460 45
2010-06-10 08:53:58 51°20.839 3°2.876 12 278 15.2 100460 45
2010-06-10 08:54:02 51°20.844 3°2.899 12.2 323 15.1 100460 45
2010-06-10 08:54:08 51°20.852 3°2.932 13.2 282 15.1 100460 45
2010-06-10 08:54:13 51°20.859 3°2.961 12.8 322 15.2 100460 46
2010-06-10 08:54:17 51°20.864 3°2.983 13.6 287 15.2 100460 46
2010-06-10 08:54:23 51°20.872 3°3.016 12.4 324 15.2 100460 46
2010-06-10 08:54:27 51°20.877 3°3.038 12.3 282 15.2 100460 46
2010-06-10 08:54:33 51°20.885 3°3.072 12.9 321 15.2 100460 45
2010-06-10 08:54:38 51°20.892 3°3.1 11 278 15.2 100460 45
2010-06-10 08:54:43 51°20.899 3°3.128 12.6 323 15.2 100460 45
2010-06-10 08:54:48 51°20.905 3°3.156 12.6 284 15.2 100460 45
2010-06-10 08:54:53 51°20.912 3°3.184 12.8 324 15.2 100460 45
2010-06-10 08:54:58 51°20.918 3°3.212 12.4 286 15.2 100460 45
2010-06-10 08:55:02 51°20.923 3°3.234 13.6 321 15.2 100460 45
2010-06-10 08:55:08 51°20.931 3°3.268 11.2 280 15.2 100460 45
2010-06-10 08:55:13 51°20.938 3°3.296 12.9 321 15.2 100460 45
2010-06-10 08:55:17 51°20.943 3°3.319 12.3 282 15.2 100470 45
2010-06-10 08:55:23 51°20.951 3°3.352 12.9 322 15.2 100450 46
2010-06-10 08:55:28 51°20.957 3°3.381 11.6 278 15.2 100450 46
2010-06-10 08:55:32 51°20.963 3°3.403 12.4 322 15.2 100460 45
2010-06-10 08:55:37 51°20.969 3°3.431 12.3 279 15.2 100460 45
2010-06-10 08:55:43 51°20.977 3°3.465 12.7 321 15.2 100460 45
2010-06-10 08:55:48 51°20.984 3°3.492 11.5 -999 15.2 100460 45
2010-06-10 08:55:53 51°20.991 3°3.52 12.3 323 15.2 100460 46
2010-06-10 08:55:57 51°20.996 3°3.543 12.1 277 15.2 100460 46
2010-06-10 08:56:03 51°21.004 3°3.577 12.6 322 15.2 100460 46
2010-06-10 08:56:08 51°21.011 3°3.605 11.5 283 15.2 100460 46
2010-06-10 08:56:13 51°21.018 3°3.633 10.6 324 15.2 100460 45
2010-06-10 08:56:17 51°21.023 3°3.655 13 282 15.2 100460 45
2010-06-10 08:56:22 51°21.03 3°3.684 12.2 322 15.2 100470 45
2010-06-10 08:56:28 51°21.038 3°3.717 11.1 283 15.2 100470 45
2010-06-10 08:56:33 51°21.044 3°3.745 11.2 322 15.2 100460 45
2010-06-10 08:56:37 51°21.05 3°3.768 12.6 283 15.2 100460 45
2010-06-10 08:56:43 51°21.057 3°3.802 12.5 322 15.2 100470 45
2010-06-10 08:56:48 51°21.064 3°3.83 11.6 -999 15.2 100470 45
2010-06-10 08:56:53 51°21.071 3°3.858 11.9 321 15.2 100460 46
2010-06-10 08:56:58 51°21.078 3°3.886 12.2 279 15.2 100460 46
2010-06-10 08:57:02 51°21.083 3°3.909 11.6 321 15.2 100460 45
2010-06-10 08:57:08 51°21.091 3°3.942 12.5 277 15.2 100460 45
2010-06-10 08:57:13 51°21.098 3°3.97 12 322 15.2 100460 45
2010-06-10 08:57:18 51°21.105 3°3.998 12.2 280 15.2 100460 45
2010-06-10 08:57:23 51°21.111 3°4.026 11 320 15.2 100470 45
2010-06-10 08:57:28 51°21.118 3°4.055 10.9 281 15.2 100470 45
2010-06-10 08:57:33 51°21.125 3°4.083 12.8 321 15.2 100460 46
2010-06-10 08:57:38 51°21.131 3°4.111 12.9 277 15.2 100460 46
2010-06-10 08:57:43 51°21.138 3°4.139 12.4 321 15.2 100460 45
2010-06-10 08:57:48 51°21.145 3°4.167 13.7 282 15.2 100460 45
2010-06-10 08:57:53 51°21.152 3°4.196 11.8 320 15.2 100460 45
2010-06-10 08:57:58 51°21.159 3°4.223 12 279 15.2 100460 45
2010-06-10 08:58:03 51°21.165 3°4.251 12 321 15.2 100460 45
2010-06-10 08:58:08 51°21.172 3°4.28 12 282 15.2 100460 45
2010-06-10 08:58:13 51°21.179 3°4.308 12 322 15.2 100460 45
2010-06-10 08:58:17 51°21.184 3°4.331 13.1 284 15.2 100460 45
2010-06-10 08:58:23 51°21.192 3°4.365 11.8 322 15.2 100460 44
2010-06-10 08:58:28 51°21.199 3°4.392 13.1 279 15.2 100460 44
2010-06-10 08:58:33 51°21.205 3°4.421 12.2 322 15.2 100460 45
2010-06-10 08:58:37 51°21.21 3°4.443 12.6 283 15.2 100460 45
2010-06-10 08:58:43 51°21.219 3°4.477 12.2 321 15.2 100450 45
2010-06-10 08:58:48 51°21.226 3°4.505 11.5 280 15.2 100450 45
2010-06-10 08:58:53 51°21.232 3°4.534 11 323 15.2 100450 46
2010-06-10 08:58:58 51°21.239 3°4.562 13.8 283 15.2 100450 46
2010-06-10 08:59:02 51°21.244 3°4.585 12.6 322 15.2 100460 46
2010-06-10 08:59:08 51°21.252 3°4.618 11.9 281 15.2 100460 46
2010-06-10 08:59:13 51°21.259 3°4.647 12.7 321 15.2 100460 45
2010-06-10 08:59:18 51°21.266 3°4.675 12.5 283 15.2 100460 45
2010-06-10 08:59:22 51°21.271 3°4.698 12.7 322 15.2 100460 46
2010-06-10 08:59:28 51°21.279 3°4.731 12.3 283 15.2 100460 46
2010-06-10 08:59:33 51°21.286 3°4.76 11.3 322 15.2 100450 46
2010-06-10 08:59:38 51°21.293 3°4.788 10.2 286 15.2 100450 46
2010-06-10 08:59:43 51°21.299 3°4.817 11.3 322 15.2 100460 46
2010-06-10 08:59:48 51°21.306 3°4.845 12.1 278 15.2 100460 46
2010-06-10 08:59:53 51°21.312 3°4.873 12.3 319 15.2 100460 45
2010-06-10 08:59:58 51°21.32 3°4.901 12.4 283 15.2 100460 45
2010-06-10 09:00:03 51°21.326 3°4.929 13 319 15.2 100450 45
2010-06-10 09:00:08 51°21.333 3°4.958 12 285 15.2 100450 45
2010-06-10 09:00:13 51°21.339 3°4.986 12.7 322 15.2 100460 46
2010-06-10 09:00:17 51°21.345 3°5.009 11.4 283 15.2 100460 46
2010-06-10 09:00:23 51°21.353 3°5.043 11.9 321 15.2 100460 45
2010-06-10 09:00:28 51°21.359 3°5.072 13.5 287 15.2 100460 45
2010-06-10 09:00:33 51°21.366 3°5.1 12.1 320 15.2 100460 45
2010-06-10 09:00:37 51°21.371 3°5.123 12.9 277 15.2 100460 45
2010-06-10 09:00:42 51°21.378 3°5.151 11.8 321 15.2 100460 46
2010-06-10 09:00:48 51°21.386 3°5.185 12.1 285 15.2 100460 46
2010-06-10 09:00:53 51°21.393 3°5.214 12.5 321 15.2 100460 45
2010-06-10 09:00:57 51°21.398 3°5.236 10.8 280 15.2 100460 45
2010-06-10 09:01:03 51°21.406 3°5.27 12 321 15.2 100460 45
2010-06-10 09:01:07 51°21.412 3°5.293 11.4 281 15.2 100450 45
2010-06-10 09:01:13 51°21.42 3°5.327 13.1 321 15.2 100460 45
2010-06-10 09:01:18 51°21.427 3°5.356 13.1 280 15.2 100460 45
2010-06-10 09:01:22 51°21.432 3°5.379 11.4 321 15.2 100450 45
2010-06-10 09:01:28 51°21.44 3°5.413 13.5 283 15.2 100450 45
2010-06-10 09:01:33 51°21.447 3°5.441 13.4 322 15.2 100450 45
2010-06-10 09:01:38 51°21.454 3°5.47 13.3 287 15.2 100450 45
2010-06-10 09:01:42 51°21.459 3°5.493 12.4 320 15.2 100460 45
2010-06-10 09:01:48 51°21.467 3°5.527 12.2 285 15.2 100460 45
2010-06-10 09:01:53 51°21.474 3°5.555 12 321 15.2 100450 45
2010-06-10 09:01:58 51°21.48 3°5.584 12.3 283 15.2 100450 45
2010-06-10 09:02:03 51°21.488 3°5.613 13 321 15.2 100450 46
2010-06-10 09:02:08 51°21.494 3°5.642 12.2 281 15.2 100450 46
2010-06-10 09:02:13 51°21.501 3°5.67 12.4 321 15.2 100450 45
2010-06-10 09:02:17 51°21.506 3°5.693 13.4 287 15.2 100450 45
2010-06-10 09:02:23 51°21.515 3°5.727 12.9 322 15.2 100450 46
2010-06-10 09:02:28 51°21.521 3°5.756 13.4 286 15.2 100450 46
2010-06-10 09:02:33 51°21.528 3°5.785 14.5 319 15.2 100450 45
2010-06-10 09:02:37 51°21.533 3°5.808 11.7 283 15.2 100450 45
2010-06-10 09:02:43 51°21.541 3°5.842 13 319 15.2 100450 45
2010-06-10 09:02:48 51°21.548 3°5.871 13.2 -999 15.2 100450 45
2010-06-10 09:02:53 51°21.555 3°5.9 13 322 15.2 100450 45
2010-06-10 09:02:57 51°21.56 3°5.923 11.7 283 15.2 100450 45
2010-06-10 09:03:03 51°21.569 3°5.957 12.5 320 15.2 100450 45
2010-06-10 09:03:08 51°21.575 3°5.986 12.5 283 15.2 100450 45
2010-06-10 09:03:13 51°21.582 3°6.015 11.8 321 15.2 100460 46
2010-06-10 09:03:18 51°21.589 3°6.044 13 286 15.2 100460 46
2010-06-10 09:03:22 51°21.594 3°6.067 11.6 322 15.2 100460 45
2010-06-10 09:03:28 51°21.603 3°6.102 12 282 15.2 100460 45
2010-06-10 09:03:33 51°21.609 3°6.131 12.5 320 15.2 100460 45
2010-06-10 09:03:38 51°21.616 3°6.16 13.1 278 15.2 100460 45
2010-06-10 09:03:42 51°21.621 3°6.183 12.2 320 15.2 100460 44
2010-06-10 09:03:48 51°21.63 3°6.217 13.3 -999 15.2 100460 44
2010-06-10 09:03:52 51°21.635 3°6.24 12.2 321 15.2 100460 46
2010-06-10 09:03:58 51°21.643 3°6.275 12.6 284 15.2 100460 46
2010-06-10 09:04:02 51°21.649 3°6.298 12 323 15.2 100450 45
2010-06-10 09:04:08 51°21.657 3°6.332 12.8 287 15.2 100450 45
2010-06-10 09:04:13 51°21.663 3°6.361 12.4 321 15.2 100450 45
2010-06-10 09:04:17 51°21.669 3°6.384 11.8 281 15.2 100460 46
2010-06-10 09:04:23 51°21.677 3°6.419 12.5 320 15.2 100450 45
2010-06-10 09:04:28 51°21.684 3°6.448 12.8 277 15.2 100450 45
2010-06-10 09:04:32 51°21.69 3°6.471 13.1 320 15.2 100470 46
2010-06-10 09:04:37 51°21.697 3°6.5 13.3 282 15.2 100470 46
2010-06-10 09:04:43 51°21.705 3°6.534 12.2 321 15.2 100460 46
2010-06-10 09:04:48 51°21.712 3°6.563 10.6 282 15.2 100460 46
2010-06-10 09:04:53 51°21.718 3°6.592 13.2 321 15.2 100460 46
2010-06-10 09:04:57 51°21.723 3°6.615 11.5 279 15.2 100460 46
2010-06-10 09:05:03 51°21.731 3°6.65 13.7 322 15.2 100470 46
2010-06-10 09:05:08 51°21.737 3°6.679 11.7 279 15.2 100470 46
2010-06-10 09:05:13 51°21.743 3°6.709 12.4 322 15.2 100460 46
2010-06-10 09:05:17 51°21.747 3°6.733 11.4 282 15.2 100460 46
2010-06-10 09:05:22 51°21.753 3°6.762 11.6 321 15.2 100470 46
2010-06-10 09:05:28 51°21.761 3°6.797 11.6 281 15.2 100470 46
2010-06-10 09:05:33 51°21.767 3°6.827 11.5 323 15.2 100460 46
2010-06-10 09:05:37 51°21.771 3°6.85 12.8 284 15.2 100460 46
2010-06-10 09:05:43 51°21.778 3°6.885 12.6 321 15.2 100470 46
2010-06-10 09:05:48 51°21.784 3°6.915 13.1 -999 15.2 100470 46
2010-06-10 09:05:53 51°21.79 3°6.944 11.6 321 15.2 100460 46
2010-06-10 09:05:58 51°21.796 3°6.974 12.9 284 15.2 100460 46
2010-06-10 09:06:02 51°21.8 3°6.997 12.4 318 15.2 100460 45
2010-06-10 09:06:08 51°21.807 3°7.033 13.6 277 15.2 100460 45
2010-06-10 09:06:13 51°21.813 3°7.062 10.7 322 15.2 100470 46
2010-06-10 09:06:17 51°21.817 3°7.086 12.6 281 15.2 100470 46
2010-06-10 09:06:23 51°21.824 3°7.121 12.4 319 15.2 100460 44
2010-06-10 09:06:28 51°21.829 3°7.151 12.3 279 15.2 100460 44
2010-06-10 09:06:32 51°21.833 3°7.175 10.6 320 15.2 100470 45
2010-06-10 09:06:38 51°21.839 3°7.211 12.3 283 15.2 100470 45
2010-06-10 09:06:43 51°21.844 3°7.241 11.4 320 15.2 100460 45
2010-06-10 09:06:48 51°21.848 3°7.271 12.6 278 15.2 100460 45
2010-06-10 09:06:53 51°21.853 3°7.301 12.7 319 15.2 100460 46
2010-06-10 09:06:57 51°21.857 3°7.325 13 283 15.2 100460 46
2010-06-10 09:07:03 51°21.862 3°7.362 12.7 318 15.3 100460 46
2010-06-10 09:07:08 51°21.867 3°7.392 13.9 285 15.3 100460 46
2010-06-10 09:07:13 51°21.872 3°7.422 13.2 319 15.3 100470 46
2010-06-10 09:07:17 51°21.876 3°7.446 13 278 15.3 100470 46
2010-06-10 09:07:23 51°21.881 3°7.482 11.5 320 15.2 100460 45
2010-06-10 09:07:28 51°21.886 3°7.512 12.9 286 15.2 100460 45
2010-06-10 09:07:33 51°21.89 3°7.542 12.4 319 15.3 100460 45
2010-06-10 09:07:38 51°21.895 3°7.572 13.3 278 15.3 100460 45
2010-06-10 09:07:42 51°21.899 3°7.596 12.1 318 15.2 100460 45
2010-06-10 09:07:48 51°21.904 3°7.633 12.8 -999 15.2 100460 45
2010-06-10 09:07:53 51°21.909 3°7.663 12.4 319 15.2 100460 45
2010-06-10 09:07:57 51°21.912 3°7.687 11.2 277 15.2 100460 45
2010-06-10 09:08:03 51°21.918 3°7.724 12.7 319 15.2 100470 45
2010-06-10 09:08:07 51°21.921 3°7.748 13.2 282 15.2 100470 45
2010-06-10 09:08:13 51°21.927 3°7.784 12.3 319 15.3 100460 45
2010-06-10 09:08:18 51°21.932 3°7.815 13.8 287 15.3 100460 45
2010-06-10 09:08:23 51°21.937 3°7.845 11.8 321 15.3 100460 45
2010-06-10 09:08:28 51°21.942 3°7.875 11.5 282 15.3 100460 45
2010-06-10 09:08:32 51°21.945 3°7.9 12.6 321 15.3 100460 45
2010-06-10 09:08:38 51°21.951 3°7.936 12.4 281 15.3 100460 45
2010-06-10 09:08:42 51°21.955 3°7.96 12.6 321 15.3 100460 46
2010-06-10 09:08:48 51°21.961 3°7.996 13.6 284 15.3 100460 46
2010-06-10 09:08:53 51°21.965 3°8.027 14.3 318 15.3 100450 45
2010-06-10 09:08:58 51°21.969 3°8.058 14.3 281 15.3 100450 45
2010-06-10 09:09:03 51°21.974 3°8.088 14.7 319 15.3 100460 44
2010-06-10 09:09:08 51°21.978 3°8.119 15.5 282 15.3 100460 44
2010-06-10 09:09:13 51°21.981 3°8.15 13.6 318 15.3 100450 46
2010-06-10 09:09:17 51°21.984 3°8.175 13.1 284 15.3 100450 46
2010-06-10 09:09:23 51°21.988 3°8.212 13.1 319 15.3 100450 45
2010-06-10 09:09:28 51°21.991 3°8.243 13.2 280 15.3 100450 45
2010-06-10 09:09:33 51°21.994 3°8.274 12.3 317 15.3 100450 45
2010-06-10 09:09:38 51°21.997 3°8.305 14 279 15.3 100450 45
2010-06-10 09:09:42 51°21.999 3°8.33 11.9 316 15.3 100440 46
2010-06-10 09:09:48 51°22.003 3°8.367 13.8 -999 15.3 100440 46
2010-06-10 09:09:53 51°22.006 3°8.398 12.7 316 15.3 100450 46
2010-06-10 09:09:57 51°22.009 3°8.423 11.7 287 15.3 100450 46
2010-06-10 09:10:02 51°22.012 3°8.454 12.6 318 15.3 100450 45
2010-06-10 09:10:08 51°22.016 3°8.491 13.1 278 15.3 100450 45
2010-06-10 09:10:13 51°22.019 3°8.522 13.9 317 15.3 100450 45
2010-06-10 09:10:17 51°22.021 3°8.547 12.3 278 15.3 100450 45
2010-06-10 09:10:23 51°22.025 3°8.584 12.7 316 15.3 100450 45
2010-06-10 09:10:27 51°22.028 3°8.609 13.4 283 15.3 100450 45
2010-06-10 09:10:33 51°22.031 3°8.647 13.4 315 15.3 100450 46
2010-06-10 09:10:38 51°22.034 3°8.678 13 278 15.3 100450 46
2010-06-10 09:10:43 51°22.037 3°8.709 13.2 318 15.3 100450 45
2010-06-10 09:10:48 51°22.04 3°8.74 13.7 284 15.3 100450 45
2010-06-10 09:10:52 51°22.043 3°8.765 11.8 320 15.3 100450 46
2010-06-10 09:10:58 51°22.047 3°8.802 11.8 279 15.3 100450 46
2010-06-10 09:11:02 51°22.049 3°8.827 13.1 316 15.3 100440 46
2010-06-10 09:11:08 51°22.053 3°8.865 14.7 278 15.3 100440 46
2010-06-10 09:11:13 51°22.056 3°8.896 15.4 316 15.3 100440 46
2010-06-10 09:11:18 51°22.06 3°8.927 13.2 278 15.3 100440 46
2010-06-10 09:11:23 51°22.063 3°8.958 12.9 317 15.3 100440 45
2010-06-10 09:11:28 51°22.066 3°8.989 13.4 281 15.3 100440 45
2010-06-10 09:11:33 51°22.069 3°9.021 12.4 315 15.3 100430 46
2010-06-10 09:11:37 51°22.072 3°9.046 11.8 282 15.3 100430 46
2010-06-10 09:11:43 51°22.076 3°9.084 13.5 317 15.3 100440 44
2010-06-10 09:11:48 51°22.079 3°9.115 12.4 -999 15.3 100440 44
2010-06-10 09:11:53 51°22.082 3°9.146 12.9 316 15.3 100440 46
2010-06-10 09:11:58 51°22.086 3°9.177 12.7 279 15.3 100440 46
2010-06-10 09:12:02 51°22.088 3°9.203 12.4 316 15.3 100440 46
2010-06-10 09:12:08 51°22.092 3°9.24 12.8 285 15.3 100440 46
2010-06-10 09:12:13 51°22.095 3°9.272 12.9 317 15.3 100440 46
2010-06-10 09:12:17 51°22.098 3°9.297 13 279 15.3 100440 46
2010-06-10 09:12:22 51°22.101 3°9.328 14.6 316 15.3 100440 45
2010-06-10 09:12:28 51°22.105 3°9.365 13.2 282 15.3 100440 45
2010-06-10 09:12:33 51°22.108 3°9.397 13 316 15.3 100440 45
2010-06-10 09:12:37 51°22.11 3°9.422 14.7 281 15.3 100440 45
2010-06-10 09:12:43 51°22.114 3°9.459 12.8 317 15.3 100440 45
2010-06-10 09:12:47 51°22.117 3°9.484 14.2 283 15.3 100440 45
2010-06-10 09:12:53 51°22.12 3°9.522 13.7 317 15.3 100430 45
2010-06-10 09:12:58 51°22.124 3°9.553 14.2 284 15.3 100430 45
2010-06-10 09:13:03 51°22.127 3°9.585 13 317 15.3 100430 46
2010-06-10 09:13:08 51°22.13 3°9.616 12.4 282 15.3 100430 46
2010-06-10 09:13:12 51°22.133 3°9.641 13.4 317 15.3 100440 46
2010-06-10 09:13:18 51°22.137 3°9.679 14.5 286 15.3 100440 46
2010-06-10 09:13:23 51°22.14 3°9.71 14 316 15.3 100420 46
2010-06-10 09:13:28 51°22.144 3°9.742 12.9 281 15.3 100420 46
2010-06-10 09:13:33 51°22.147 3°9.773 13.4 317 15.3 100430 46
2010-06-10 09:13:37 51°22.15 3°9.798 14.4 282 15.3 100430 46
2010-06-10 09:13:43 51°22.154 3°9.836 15.4 317 15.3 100440 46
2010-06-10 09:13:48 51°22.158 3°9.868 14 283 15.3 100440 46
2010-06-10 09:13:53 51°22.161 3°9.899 15.2 316 15.3 100440 46
2010-06-10 09:13:57 51°22.164 3°9.925 12.4 281 15.3 100440 46
2010-06-10 09:14:03 51°22.168 3°9.962 12.2 318 15.3 100440 46
2010-06-10 09:14:08 51°22.171 3°9.994 14.4 282 15.3 100440 46
2010-06-10 09:14:13 51°22.175 3°10.025 14.3 316 15.3 100430 46
2010-06-10 09:14:17 51°22.178 3°10.051 14.4 280 15.3 100430 46
2010-06-10 09:14:22 51°22.181 3°10.082 15 317 15.3 100440 44
2010-06-10 09:14:28 51°22.186 3°10.12 14.3 284 15.3 100440 44
2010-06-10 09:14:33 51°22.19 3°10.151 15.6 318 15.3 100430 46
2010-06-10 09:14:37 51°22.194 3°10.176 13.9 281 15.3 100430 46
2010-06-10 09:14:43 51°22.198 3°10.214 13.4 317 15.3 100430 45
2010-06-10 09:14:47 51°22.202 3°10.239 14.5 282 15.3 100430 45
2010-06-10 09:14:53 51°22.208 3°10.276 13.3 317 15.3 100440 46
2010-06-10 09:14:58 51°22.213 3°10.307 12.9 287 15.3 100440 46
2010-06-10 09:15:02 51°22.217 3°10.332 14.6 319 15.3 100430 46
2010-06-10 09:15:08 51°22.224 3°10.368 14.2 278 15.3 100430 46
2010-06-10 09:15:12 51°22.228 3°10.392 13.9 319 15.3 100430 46
2010-06-10 09:15:18 51°22.236 3°10.429 13.8 283 15.3 100430 46
2010-06-10 09:15:22 51°22.24 3°10.454 13.4 318 15.3 100440 45
2010-06-10 09:15:28 51°22.248 3°10.49 16.1 284 15.3 100440 45
2010-06-10 09:15:33 51°22.254 3°10.52 13.5 321 15.3 100440 45
2010-06-10 09:15:38 51°22.261 3°10.55 13.3 277 15.3 100440 45
2010-06-10 09:15:43 51°22.269 3°10.58 14.6 321 15.3 100430 46
2010-06-10 09:15:48 51°22.275 3°10.609 16.1 -999 15.3 100430 46
2010-06-10 09:15:53 51°22.283 3°10.638 14.6 317 15.3 100430 45
2010-06-10 09:15:57 51°22.288 3°10.661 15.2 281 15.3 100430 45